Simultaneous Nadir Overpasses (SNOs) Predictions

Prediction of SNOs between GOES-16 and NOAA-19 Satellite Orbit:

Table of predicted SNOs for the next 14.0 days since TLE Epoch: 1/4/2025
Index Date Time (GOES-16) GOES-16 Lat,Lon NOAA-19 Lat,Lon Distance(km) Time Diff (sec)
1 01/06/2025 14:43:22 -0.00, -75.23 0.44, -77.23 227.56 80
2 01/07/2025 14:33:30 -0.00, -75.24 -0.22, -74.18 120.28 80
3 01/08/2025 14:21:00 -0.00, -75.25 -0.93, -71.14 468.10 80
4 01/10/2025 02:52:34 -0.00, -75.23 -0.78, -78.73 399.31 80
5 01/11/2025 02:40:03 -0.00, -75.24 -0.11, -75.69 51.23 80
6 01/12/2025 02:24:51 -0.01, -75.25 0.57, -72.64 296.97 80
7 01/14/2025 14:43:36 0.01, -75.31 0.42, -77.11 205.43 80
8 01/15/2025 14:33:45 0.01, -75.33 -0.26, -74.07 143.60 80
9 01/16/2025 14:21:14 0.00, -75.35 -1.00, -71.04 492.81 80
